TimeCST,TemperatureF,Dew PointF,Humidity,Sea Level PressureIn,VisibilityMPH,Wind Direction,Wind SpeedMPH,Gust SpeedMPH,PrecipitationIn,Events,Conditions,WindDirDegrees,DateUTC
12:15 AM,27.5,18.1,68,29.98,10.0,SSE,16.1,-,N/A,,Clear,160,2013-02-18 06:15:00
12:35 AM,28.0,18.1,66,29.98,10.0,SSE,15.0,20.7,N/A,,Clear,160,2013-02-18 06:35:00
12:55 AM,27.9,18.3,67,29.97,10.0,SSE,13.8,-,N/A,,Clear,150,2013-02-18 06:55:00
1:15 AM,28.0,18.3,67,29.96,10.0,SSE,15.0,20.7,N/A,,Clear,160,2013-02-18 07:15:00
1:35 AM,28.4,18.1,65,29.95,10.0,SSE,15.0,-,N/A,,Clear,160,2013-02-18 07:35:00
1:55 AM,28.8,18.0,64,29.93,10.0,SSE,16.1,21.9,N/A,,Clear,160,2013-02-18 07:55:00
2:15 AM,28.9,18.0,64,29.92,10.0,SSE,16.1,21.9,N/A,,Clear,160,2013-02-18 08:15:00
2:35 AM,28.8,18.3,65,29.91,10.0,SSE,12.7,-,N/A,,Clear,160,2013-02-18 08:35:00
2:55 AM,28.9,18.3,65,29.89,10.0,SSE,16.1,-,N/A,,Clear,160,2013-02-18 08:55:00
3:15 AM,29.1,18.5,65,29.89,10.0,South,15.0,-,N/A,,Clear,170,2013-02-18 09:15:00
3:35 AM,29.1,18.5,65,29.87,10.0,SSE,15.0,-,N/A,,Clear,160,2013-02-18 09:35:00
3:55 AM,29.3,18.7,65,29.86,10.0,South,15.0,-,N/A,,Clear,170,2013-02-18 09:55:00
4:15 AM,29.3,18.9,65,29.85,10.0,SSE,16.1,19.6,N/A,,Clear,160,2013-02-18 10:15:00
4:35 AM,29.7,19.0,65,29.84,10.0,South,16.1,-,N/A,,Clear,170,2013-02-18 10:35:00
4:55 AM,30.0,19.4,65,29.84,10.0,South,16.1,-,N/A,,Clear,170,2013-02-18 10:55:00
5:15 AM,30.2,19.4,64,29.82,10.0,South,17.3,23.0,N/A,,Clear,170,2013-02-18 11:15:00
5:35 AM,30.7,19.9,64,29.81,10.0,South,17.3,-,N/A,,Clear,170,2013-02-18 11:35:00
5:55 AM,31.1,20.1,64,29.81,10.0,South,18.4,21.9,N/A,,Clear,180,2013-02-18 11:55:00
6:15 AM,30.2,21.2,69,29.80,10.0,South,18.4,23.0,N/A,,Clear,170,2013-02-18 12:15:00
6:35 AM,31.1,21.0,66,29.79,10.0,South,17.3,-,N/A,,Clear,170,2013-02-18 12:35:00
6:55 AM,30.2,21.2,69,29.79,10.0,South,16.1,-,N/A,,Clear,170,2013-02-18 12:55:00
7:15 AM,32.0,23.0,69,29.78,10.0,South,15.0,-,N/A,,Clear,170,2013-02-18 13:15:00
7:35 AM,32.4,23.2,69,29.77,10.0,South,15.0,-,N/A,,Clear,170,2013-02-18 13:35:00
7:55 AM,35.2,25.3,67,29.77,10.0,South,17.3,26.5,N/A,,Clear,180,2013-02-18 13:55:00
8:15 AM,36.5,26.2,66,29.77,10.0,South,18.4,-,N/A,,Clear,180,2013-02-18 14:15:00
8:35 AM,39.2,28.4,65,29.76,10.0,South,19.6,24.2,N/A,,Clear,180,2013-02-18 14:35:00
8:55 AM,38.8,28.2,66,29.75,10.0,South,17.3,-,N/A,,Clear,190,2013-02-18 14:55:00
9:15 AM,39.4,29.3,67,29.74,10.0,South,16.1,-,N/A,,Clear,180,2013-02-18 15:15:00
9:35 AM,42.1,31.1,65,29.74,10.0,South,18.4,-,N/A,,Clear,190,2013-02-18 15:35:00
9:55 AM,44.1,32.2,63,29.73,10.0,South,17.3,23.0,N/A,,Clear,190,2013-02-18 15:55:00
10:15 AM,46.4,33.8,62,29.73,10.0,South,15.0,24.2,N/A,,Clear,190,2013-02-18 16:15:00
10:35 AM,47.5,35.1,62,29.71,10.0,SSW,28.8,35.7,N/A,,Clear,210,2013-02-18 16:35:00
10:55 AM,48.9,36.0,61,29.71,10.0,SSW,23.0,29.9,N/A,,Clear,200,2013-02-18 16:55:00
11:15 AM,50.0,37.4,62,29.69,10.0,SSW,24.2,33.4,N/A,,Clear,210,2013-02-18 17:15:00
11:35 AM,50.5,37.9,62,29.68,10.0,SSW,24.2,-,N/A,,Clear,210,2013-02-18 17:35:00
11:55 AM,50.9,38.8,63,29.67,10.0,SSW,27.6,34.5,N/A,,Clear,200,2013-02-18 17:55:00
12:15 PM,49.6,38.5,65,29.67,10.0,SSW,19.6,26.5,N/A,,Mostly Cloudy,200,2013-02-18 18:15:00
12:35 PM,50.0,39.2,66,29.64,10.0,SSW,25.3,31.1,N/A,,Overcast,200,2013-02-18 18:35:00
12:55 PM,49.8,39.7,68,29.64,10.0,SSW,26.5,32.2,N/A,,Overcast,210,2013-02-18 18:55:00
1:15 PM,49.6,40.3,70,29.63,10.0,SSW,21.9,33.4,N/A,,Overcast,210,2013-02-18 19:15:00
1:35 PM,49.5,40.6,72,29.62,10.0,SSW,18.4,27.6,N/A,,Overcast,210,2013-02-18 19:35:00
1:55 PM,50.0,41.4,72,29.61,10.0,SSW,21.9,28.8,N/A,,Overcast,210,2013-02-18 19:55:00
2:15 PM,50.2,41.9,73,29.60,10.0,SSW,17.3,26.5,N/A,,Overcast,210,2013-02-18 20:15:00
2:35 PM,50.5,42.6,74,29.59,10.0,SSW,21.9,29.9,N/A,,Overcast,210,2013-02-18 20:35:00
2:55 PM,50.4,43.2,76,29.58,10.0,SSW,17.3,25.3,N/A,,Overcast,200,2013-02-18 20:55:00
3:15 PM,50.2,43.7,78,29.57,10.0,South,18.4,25.3,N/A,,Overcast,190,2013-02-18 21:15:00
3:35 PM,49.3,43.3,80,29.56,10.0,South,23.0,28.8,N/A,,Overcast,190,2013-02-18 21:35:00
3:55 PM,48.4,43.7,84,29.55,10.0,South,20.7,26.5,N/A,,Overcast,190,2013-02-18 21:55:00
4:15 PM,48.6,43.3,82,29.54,10.0,South,21.9,29.9,N/A,,Overcast,180,2013-02-18 22:15:00
4:35 PM,48.4,43.3,83,29.53,10.0,South,24.2,33.4,N/A,,Overcast,190,2013-02-18 22:35:00
4:55 PM,48.4,43.3,83,29.52,10.0,South,27.6,34.5,N/A,,Overcast,190,2013-02-18 22:55:00
5:15 PM,48.2,43.7,84,29.51,10.0,SSW,20.7,32.2,N/A,,Overcast,200,2013-02-18 23:15:00
5:35 PM,47.7,43.7,86,29.50,10.0,SSW,26.5,40.3,N/A,,Overcast,200,2013-02-18 23:35:00
5:55 PM,47.3,43.7,87,29.49,10.0,South,29.9,40.3,N/A,,Overcast,190,2013-02-18 23:55:00
6:15 PM,47.3,43.7,87,29.47,10.0,South,28.8,41.4,N/A,Rain,Rain,190,2013-02-19 00:15:00
6:35 PM,46.4,44.1,92,29.47,10.0,South,27.6,36.8,N/A,,Light Drizzle,190,2013-02-19 00:35:00
6:55 PM,45.9,44.4,95,29.46,4.0,South,27.6,43.7,N/A,Rain,Light Rain,190,2013-02-19 00:55:00
7:15 PM,45.5,44.4,96,29.45,4.0,South,29.9,35.7,N/A,Rain,Rain,190,2013-02-19 01:15:00
7:35 PM,45.0,44.1,97,29.43,4.0,South,31.1,38.0,N/A,Rain,Rain,190,2013-02-19 01:35:00
7:55 PM,44.6,43.9,97,29.42,5.0,South,27.6,39.1,N/A,Rain,Light Rain,190,2013-02-19 01:55:00
8:15 PM,44.6,43.7,97,29.41,5.0,South,27.6,35.7,N/A,Rain,Rain,190,2013-02-19 02:15:00
8:35 PM,40.5,39.0,95,29.45,4.0,WNW,17.3,-,N/A,Rain,Light Rain,300,2013-02-19 02:35:00
8:55 PM,39.2,37.4,93,29.46,7.0,West,11.5,-,N/A,Rain,Light Rain,280,2013-02-19 02:55:00
9:15 PM,37.4,36.7,97,29.48,5.0,West,20.7,27.6,N/A,,Drizzle,280,2013-02-19 03:15:00
9:35 PM,35.1,34.0,96,29.49,7.0,WNW,24.2,31.1,N/A,,Light Drizzle,290,2013-02-19 03:35:00
9:55 PM,33.8,32.9,96,29.51,4.0,West,18.4,28.8,N/A,Snow,Light Snow,280,2013-02-19 03:55:00
10:15 PM,33.3,32.7,98,29.52,7.0,West,23.0,27.6,N/A,,Drizzle,280,2013-02-19 04:15:00
10:35 PM,33.8,32.0,93,29.54,10.0,West,18.4,26.5,N/A,,Overcast,270,2013-02-19 04:35:00
10:55 PM,32.0,31.1,96,29.54,7.0,WNW,25.3,35.7,N/A,Snow,Light Snow,290,2013-02-19 04:55:00
11:15 PM,31.1,30.0,96,29.57,4.0,West,21.9,31.1,N/A,Snow,Light Snow,280,2013-02-19 05:15:00
11:35 PM,28.9,26.8,92,29.58,5.0,West,28.8,36.8,N/A,Snow,Light Snow,280,2013-02-19 05:35:00
11:55 PM,28.2,26.1,92,29.59,10.0,West,24.2,32.2,N/A,,Overcast,280,2013-02-19 05:55:00